Flag for Germany

Past Weather in Prenzlau, Brandenburg, Germany — Yesterday and Last 2 Weeks

Now
66 °F

Sunny.


Feels Like: 66 °F
Forecast: 74 / 61 °F
Wind: 5 mph from Southeast

Location: Szczecin Airport
Current Time: Aug 13, 2020 at 8:42:34 am
Latest Report: Aug 13, 2020 at 8:00 am
Visibility: 10 mi
Pressure30.04 "Hg
Humidity: 64%
Dew Point: 54 °F
Location of PrenzlauLocation

Past Weather in Prenzlau — Graph

°F

Prenzlau Temperature Yesterday

Maximum temperature yesterday: 84 °F (at 5:00 pm)
Minimum temperature yesterday: 57 °F (at 5:30 am)
Average temperature yesterday: 71 °F

High & Low Weather Summary for the Past Weeks

 TemperatureHumidityPressure
High95 °F (Aug 8, 3:00 pm)100% (Aug 1, 3:30 am)30.24 "Hg (Aug 1, 3:30 am)
Low43 °F (Aug 5, 3:30 am)25% (Aug 6, 5:30 pm)29.83 "Hg (Aug 3, 5:30 pm)
Average69 °F62%30.06 "Hg
* Reported Jul 29 7:00 am — Aug 13 7:30 am, Prenzlau. Weather by CustomWeather, © 2020

Note: Actual official high and low records may vary slightly from our data, if they occured in-between our weather recording intervals... More about our weather records

Prenzlau Weather History for the Previous 24 Hours

Scroll right to see more
 ConditionsComfort  
Time TempWeatherWind HumidityBarometerVisibility
7:30 am
Thu, Aug 13
63 °FSunny.2 mph73%30.04 "Hg10 mi
7:00 am59 °FSunny.1 mph82%30.04 "Hg10 mi
6:30 am55 °FSunny.1 mph88%30.04 "Hg10 mi
6:00 am55 °FFog.1 mph88%30.04 "HgN/A
5:30 am57 °FFog.1 mph88%30.04 "HgN/A
5:00 am57 °FClear.1 mph88%30.04 "Hg10 mi
4:30 am57 °FClear.1 mph88%30.04 "Hg10 mi
4:00 am57 °FClear.1 mph88%30.04 "Hg10 mi
3:00 am61 °FClear.3 mph83%30.07 "Hg10 mi
2:30 am61 °FPassing clouds.3 mph83%30.07 "HgN/A
2:00 am61 °FClear.2 mph83%30.07 "Hg10 mi
1:30 am61 °FClear.2 mph83%30.07 "Hg10 mi
1:00 am63 °FPassing clouds.6 mph77%30.07 "HgN/A
12:30 am63 °FClear.7 mph77%30.07 "Hg10 mi
12:00 am64 °FClear.8 mph73%30.09 "Hg10 mi
11:30 pm
Wed, Aug 12
64 °FPassing clouds.7 mph73%30.09 "HgN/A
11:00 pm66 °FPassing clouds.7 mph68%30.09 "HgN/A
10:30 pm66 °FClear.8 mph68%30.09 "Hg10 mi
10:00 pm68 °FPassing clouds.9 mph64%30.09 "HgN/A
9:00 pm72 °FPassing clouds.7 mph53%30.09 "HgN/A
8:30 pm73 °FPassing clouds.8 mph53%30.07 "HgN/A
8:00 pm75 °FPassing clouds.7 mph50%30.07 "HgN/A
7:30 pm77 °FPassing clouds.9 mph47%30.07 "HgN/A
7:00 pm79 °FPassing clouds.9 mph45%30.07 "HgN/A
6:30 pm82 °FPassing clouds.5 mph28%30.07 "HgN/A
6:00 pm82 °FPassing clouds.7 mph28%30.09 "HgN/A
5:30 pm82 °FSunny.6 mph28%30.09 "Hg10 mi
5:00 pm84 °FPassing clouds.7 mph27%30.09 "HgN/A
4:30 pm82 °FPassing clouds.5 mph28%30.09 "HgN/A
4:00 pm82 °FPassing clouds.7 mph30%30.12 "HgN/A
3:30 pm82 °FSunny.6 mph30%30.12 "Hg10 mi
3:00 pm82 °FPassing clouds.5 mph30%30.12 "HgN/A
2:30 pm82 °FSunny.6 mph30%30.12 "Hg10 mi
2:00 pm81 °FSunny.6 mph34%30.15 "Hg10 mi
1:30 pm81 °FPassing clouds.9 mph34%30.15 "HgN/A
1:00 pm81 °FPassing clouds.8 mph37%30.15 "HgN/A
12:30 pm79 °FSunny.7 mph39%30.15 "Hg10 mi
12:00 pm79 °FPassing clouds.8 mph42%30.15 "HgN/A
11:30 am77 °FSunny.8 mph42%30.18 "Hg10 mi
11:00 am77 °FPassing clouds.6 mph44%30.18 "HgN/A
10:30 am75 °FPassing clouds.6 mph50%30.18 "HgN/A
10:00 am73 °FPassing clouds.7 mph50%30.18 "HgN/A
9:30 am70 °FPassing clouds.5 mph57%30.18 "HgN/A
9:00 am68 °FPassing clouds.7 mph60%30.18 "HgN/A
8:30 am66 °FSunny.6 mph68%30.18 "Hg10 mi
8:00 am63 °FSunny.5 mph77%30.18 "Hg10 mi
Weather by CustomWeather, © 2020

See weather overview